Powrót do katalogu

STARLINK-30152

AktywnyŁącznośćVLEO
NORAD 56828·PAYLOAD·🇺🇸 United States

Wystrzelony Jun 4, 2023 z Cape Canaveral Space Force Station

Loading…

Następne Przeloty (najbliższe 24 godziny)

TLE

ŚwieżeSource: CelesTrak SupGP

Epoka: Sep 14, 2026, 22:27 UTC

1 56828C 23079F   26257.93590278 -.00030614  00000+0 -11091-2 0  2571
2 56828  43.0000 118.3560 0001327 273.9096 324.7771 15.27585224    14

Śledź STARLINK-30152 w czasie rzeczywistym z AllMySat

Download on the App Store